Showing default

MEASAT 3B, 40147

Orbit data source: Space-Track

MEASAT 3B, 40147 is a payload satellite owned by Measat (MY) in GEO that was launched on Thu, 11 Sep 2014 UTC via an ARIANE 5ECA launch vehicle from the French Guiana (FRGUI). Payload-class satellites include a variety of spacecraft equipped with specific instruments for various scientific and technological missions. These include communications satellites like Starlink; space stations such as the ISS; scientific satellites like the Hubble; Earth observation satellites from companies like Planet Labs, Umbra, and HawkEye 360; GPS; miniature CubeSats for education and research; and military/defense satellites.

Not visible in the next 10 days
Identifier
40147, 2014-054B
Orbit
GEO
Country
Flag of UnknownUnknown / MALA
Related business
Manufacturer
Airbus/Toulouse
Mission
Operational Commercial Communications
Bus & Motor
EUROSTAR 3000, R-4D?
Mass
5,897 kg wet, ~3,000 kg dry
Launch date (UTC)
2014-09-11 (11 years ago)
Launch vehicle
ARIANE 5ECA
Launch site
French Guiana (FRGUI)
Object type
Payload
Rocket body
Debris
Shape & HBR
Box + 2 Pan, 17.2 m
Radar Cross Section
41.860 m², Large (>1 m²)

Expand to show TLE details & history
Last TLE update: 14 hours ago

TLE from 14 hours ago
0 MEASAT 3B
1 40147U 14054B   26061.80474613 -.00000257  00000-0  00000-0 0  9993
2 40147   0.0390  34.7996 0003608 350.7700 156.2014  1.00269079 41847
Epoch: 2026-03-02T19:18Z
TLE epoch observation values (Epoch: 2026-03-02T19:18:50.065Z)
Latitude
0.03079°
Longitude
91.52234°
Altitude
35,800.797 km
Speed
3.074 km/s
True Right ascension
12h 07m 17s
True Declination
0° 01' 51"
Sunlit
Object was in daylight at epoch
Visualization orbit readout
Latitude
Unknown
Longitude
Unknown
Altitude
Unknown
Speed
Unknown
Apparent Right ascension
Unknown
Apparent Declination
Unknown
Sunlit
N/A
Visualization observer readout
Local Sidereal Time
12:38:10
Azimuth
Unknown
Elevation
Unknown
Doppler factor
Unknown
Orbital elements
Apogee altitude
35,803.638 km
Perigee altitude
35,773.21 km
Semi-major axis
42,166.561 km
Eccentricity
0.00036
Inclination
0.039°
RAAN
34.7996°
Arg. of periapsis
350.77°
True anomaly
156.21808°
Mean anomaly
156.2014°
Eccentric anomaly
156.20974°
Mean motion
0.25066 °/min
Orbital period
1,436.19 mins
BSTAR
0
Loading maneuver chart data...
Computing Atmospheric mass density...
Loading historical data...
Loading historical data...
Loading historical data...
Loading historical data...
Loading historical data...
Loading historical data...
Loading historical data...
Other satellites on launch #54 in the year 2014 (2014-09-11 UTC)

Documentation

Showing up to 5 results
|